Preview of NWS' New Version of Forecast
This preview is not operational and should not be used for support decisions.

Regional Weather Roundup (RWR)

Issued by National Weather Service (NWS)

                            
000
ASUS46 KPQR 190510
RWROR 

OREGON REGIONAL WEATHER ROUNDUP
NATIONAL WEATHER SERVICE PORTLAND OR
900 PM PST MON FEB 18 2019

NOTE: "FAIR" INDICATES FEW OR NO CLOUDS BELOW 12,000 FEET WITH
NO SIGNIFICANT WEATHER AND/OR OBSTRUCTIONS TO VISIBILITY.

ORZ001>013-190600-
NORTHWEST OREGON

  
CITY           SKY/WX    TMP DP  RH WIND       PRES   REMARKS
ASTORIA        PTCLDY    38  37  97 S5        30.36F                  
TILLAMOOK      CLOUDY    41  37  87 CALM      30.40S                  
NEWPORT        MOCLDY    34  32  93 CALM      30.42S                  
PORTLAND       CLOUDY    40  34  79 CALM      30.39S                  
VANCOUVER WA   CLOUDY    40  36  86 CALM      30.38S                  
SCAPPOOSE      CLOUDY    39  36  89 CALM      30.38S FOG              
HILLSBORO      CLOUDY    38  37  97 CALM      30.37S                  
AURORA         MOCLDY    40  35  83 CALM      30.39S                  
MCMINNVILLE    CLOUDY    40  36  86 SW7       30.37S                  
SALEM          CLOUDY    40  33  76 CALM      30.37S                  
CORVALLIS      CLOUDY    37  36  96 W3        30.40S                  
EUGENE         MOCLDY    37  33  85 CALM      30.39S                  
$$

ORZ021-028-190600-
SOUTHWEST OREGON

  
CITY           SKY/WX    TMP DP  RH WIND       PRES   REMARKS
NORTH BEND     PTCLDY    37  35  92 CALM      30.42S                  
BROOKINGS      CLEAR     44  28  53 NE8       30.35S                  
ROSEBURG       CLEAR     35  30  82 CALM      30.38S                  
SEXTON SUMMIT  PTCLDY    25  24  96 N13G20    30.23S WCI  14          
GRANTS PASS    FAIR      30  28  93 CALM      30.37                   
MEDFORD        CLEAR     35  26  69 CALM      30.33S                  
$$

ORZ014>016-041-190600-
COLUMBIA GORGE

  
CITY           SKY/WX    TMP DP  RH WIND       PRES   REMARKS
TROUTDALE      CLOUDY    41  35  79 CALM      30.39R                  
HOOD RIVER     PTCLDY    36  32  87 W9G18     30.33R                  
THE DALLES     CLEAR     29  25  85 SE5       30.33R                  
$$

ORZ029>031-041-044-049-050-061>064-502-503-505>511-190600-
EASTERN OREGON

  
CITY           SKY/WX    TMP DP  RH WIND       PRES   REMARKS
MADRAS         NOT AVBL                                               
REDMOND        CLOUDY    32  21  64 NW5       30.24S                  
BEND           CLOUDY    30  19  64 CALM      30.23S                  
PRINEVILLE     CLOUDY    30  23  74 NW7       30.23F                  
KLAMATH FALLS  CLEAR     25  18  74 NW6       30.19R                  
LAKEVIEW       CLEAR      8   3  80 NW8       30.17S                  
HERMISTON      PTCLDY    30  24  78 N3        30.29S                  
PENDLETON      CLOUDY    30  25  81 SE5       30.25S                  
JOHN DAY       CLOUDY    28  21  74 W3        30.18                   
MEACHAM        FLURRIES  23  18  81 VRB3      30.14S                  
LA GRANDE      FLURRIES  26  21  81 N9        30.20F                  
BAKER CITY     CLOUDY    26  18  71 CALM      30.16F                  
BURNS          CLOUDY    21  15  78 CALM      30.16F                  
ROME             N/A     11   5  77 SE8       30.14R                  
ONTARIO        PTCLDY    27  17  66 N8        30.23S                  
$$